Location: Sungai Bunut
(2.6333°N, 113.7333°E)
Time: 01:21:53
(UTC+00:00)

S-56A Canister/Altair - Pass Details

Date: 09 December 2023
Orbit: 640 x 2488 km, 38.9° (Epoch: 24 February)

Event Time Altitude Azimuth Distance (km) Brightness Sun altitude
Rises 01:16:19 0° 262° (W) 4,685 11.2 39.1°
Reaches altitude 10° 01:21:28 10° 282° (WNW) 3,268 10.4 40.2°
Maximum altitude 01:25:38 15° 315° (NW) 2,554 9.9 41.1°
Drops below altitude 10° 01:29:08 10° 349° (N) 2,630 10.0 41.8°
Sets 01:32:34 0° 14° (NNE) 3,313 10.6 42.5°
